Location: Los Gatos B&B
(42.6926°N, 77.0646°W)
Time: 02:21:27
(UTC-04:00)

SL-16 R/B - Visible Passes

Search period start: 23 March 2017 00:00
Search period end: 02 April 2017 00:00
Orbit: 840 x 850 km, 71.0° (Epoch: 21 March)

Date Brightness Start Highest point End Pass type
(mag) Time Alt. Az. Time Alt. Az. Time Alt. Az.
23 Mar 4.8 06:12:40 10° SSE 06:16:59 23° E 06:21:19 10° NE visible
24 Mar 4.8 05:58:42 10° SSE 06:02:56 22° E 06:07:11 10° NE visible
25 Mar 4.8 05:44:44 10° SSE 05:48:53 21° E 05:53:03 10° NE visible
26 Mar 4.7 05:30:47 10° SSE 05:34:51 21° E 05:38:55 10° NE visible
27 Mar 4.7 05:16:50 10° SE 05:20:48 20° E 05:24:46 10° NE visible
28 Mar 4.7 05:02:53 10° SE 05:06:45 19° E 05:10:38 10° NE visible
29 Mar 4.7 04:48:57 10° SE 04:52:43 18° E 04:56:30 10° ENE visible
30 Mar 4.7 04:35:01 10° SE 04:38:40 18° E 04:42:20 10° ENE visible
30 Mar 2.3 06:16:32 10° SW 06:22:10 67° WNW 06:27:51 10° NNE visible
31 Mar 4.7 04:21:06 10° SE 04:24:38 17° E 04:28:11 10° ENE visible
31 Mar 2.2 06:02:28 10° SSW 06:08:06 69° WNW 06:13:47 10° NNE visible
01 Apr 4.6 04:07:10 10° SE 04:10:35 17° E 04:14:01 10° ENE visible
01 Apr 2.2 05:48:23 10° SSW 05:54:01 71° WNW 05:59:44 10° NNE visible
